Location: Keppel Henge
(44.7900°N, 80.9447°W)
Time: 00:37:02
(UTC-05:00)

Vanguard 1 Rocket - Pass Details

Date: 25 October 2017
Orbit: 655 x 4222 km, 34.3° (Epoch: 22 November)

Event Time Altitude Azimuth Distance (km) Brightness Sun altitude
Rises 10:38:33 0° 262° (W) 3,960 10.4 23.7°
Reaches altitude 10° 10:42:18 10° 247° (WSW) 2,585 9.6 24.1°
Maximum altitude 10:46:30 21° 199° (SSW) 1,596 9.3 24.6°
Drops below altitude 10° 10:49:57 10° 148° (SSE) 2,074 11.2 24.9°
Sets 10:52:34 0° 131° (SE) 2,964 11.3 25.2°
